Tracking 18942 objects as of 18-Jan-2018
HD Live streaming from Space Station
objects crossing your sky now

FENGYUN 1C DEB

Track FENGYUN 1C DEB now!
10-day predictions


NORAD ID: 31435
Int'l Code: 1999-025BTX
Perigee: 623.7 km
Apogee: 851.0 km
Inclination: 99.0 °
Period: 99.4 minutes
Semi major axis: 7108 km
RCS: 0.0068 m2 (small)
Launch date: May 10, 1999
Source: People's Republic of China (PRC)
Launch site: Taiyaun Space Center, China (TSC)

Note: This is SATELLITE DEBRIS
aabbcc
Your satellite tracking list
Your tracking list is empty




NASA's NSSDC Master Catalog

Two Line Element Set (TLE):
1 31435U 99025BTX 18015.99383040 -.00000048 +00000-0 +26641-5 0  9999
2 31435 098.9639 315.2192 0159921 200.6657 158.8019 14.48605694565317
Source of the keplerian elements: AFSPC